Flag for U.S.A. Weather past 2 weeks in Jefferson City, Missouri, U.S.A.

Now
77 °F

Sunny.


Feels Like: 79 °F
Forecast: 65 / 79 °F
Wind: 6 mph from North

Location: Jefferson City Memorial Airport

Current Time: Jul 3, 2015 at 12:55:16 PM

Latest Report: Jul 3, 2015 at 11:53 AM


Visibility: 10 mi

Pressure: 29.90 "Hg

Humidity: 52%

Dew point: 58 °F

Location of Jefferson CityLocation

Historic Weather in Jefferson City — Graph

°F

Jefferson City temperature yesterday

Maximum temperature yesterday: 75 °F (at 2:53 PM)
Minimum temperature yesterday: 69 °F (at 11:53 PM)
Average temperature yesterday: 72 °F

Past Weeks' High & Low Weather Summary

 TemperatureHumidityPressure
High93 °F (Jun 20, 5:53 PM)97% (Jun 20, 5:53 AM)30.10 "Hg (Jun 20, 5:53 AM)
Low64 °F (Jun 28, 2:53 AM)46% (Jun 29, 2:53 PM)29.72 "Hg (Jun 28, 5:53 PM)
Average76 °F77%29.90 "Hg
* Reported Jun 18 10:53 AM — Jul 3 10:53 AM, Jefferson City, Weather by CustomWeather, © 2015

Note: Actual official high and low records may vary slightly from our data, if they occured in-between our weather recording intervals... More about our weather records

Advertising

Jefferson City weather history for previous 24 hours

 ConditionsComfort  
Time TempWeatherWind HumidityBarometerVisibility
10:53 AM
Fri, Jul 3
75 °FScattered clouds.8 mph64%29.89 "Hg10 mi
9:53 AM74 °FSunny.No wind67%29.89 "Hg10 mi
8:53 AM72 °FSunny.No wind71%29.88 "Hg10 mi
7:53 AM68 °FPartly sunny.No wind82%29.89 "Hg10 mi
6:53 AM67 °FCloudy.3 mph85%29.89 "Hg10 mi
5:53 AM67 °FOvercast.3 mph85%29.88 "Hg10 mi
4:53 AM66 °FOvercast.No wind87%29.87 "Hg10 mi
3:53 AM67 °FOvercast.3 mph85%29.87 "Hg10 mi
2:53 AM67 °FOvercast.3 mph85%29.88 "Hg10 mi
1:53 AM68 °FOvercast.5 mph82%29.88 "Hg10 mi
12:53 AM69 °FOvercast.3 mph79%29.90 "Hg10 mi
11:53 PM
Thu, Jul 2
69 °FOvercast.6 mph79%29.90 "Hg10 mi
10:53 PM70 °FOvercast.9 mph76%29.88 "Hg10 mi
9:53 PM72 °FOvercast.3 mph81%29.87 "Hg10 mi
8:53 PM73 °FOvercast.8 mph76%29.84 "Hg10 mi
7:53 PM73 °FOvercast.3 mph79%29.84 "Hg10 mi
6:53 PM74 °FOvercast.6 mph74%29.85 "Hg10 mi
5:53 PM75 °FOvercast.10 mph74%29.84 "Hg10 mi
4:53 PM75 °FOvercast.5 mph74%29.86 "Hg10 mi
3:53 PM75 °FOvercast.3 mph74%29.85 "Hg10 mi
2:53 PM75 °FOvercast.7 mph74%29.85 "Hg10 mi
1:53 PM73 °FOvercast.7 mph79%29.86 "Hg9 mi
12:53 PM72 °FOvercast.7 mph81%29.87 "Hg9 mi
Weather by CustomWeather, © 2015

See weather overviewHow to use our weather pages